Regional Weather Roundup
Issued by NWS Albany, NY

Home | Current Version | Previous Version | Text Only | Print | Product List | Glossary On
Versions: 1 2 3 4 5 6 7 8 9 10 11 12 13 14 15 16 17 18 19 20 21 22 23 24 25 26 27 28 29 30 31 32 33 34 35 36 37 38 39 40 41 42 43 44 45 46 47 48 49 50
000
ASUS41 KALY 052310
RWRALY

NEW YORK STATE HOURLY WEATHER ROUNDUP
NATIONAL WEATHER SERVICE ALBANY NY
700 PM EDT TUE MAY 05 2015

NOTE: "FAIR" INDICATES FEW OR NO CLOUDS BELOW 12,000 FEET WITH NO
SIGNIFICANT WEATHER AND/OR NO OBSTRUCTIONS TO VISIBILITY.

NYZ032-033-038>043-046>054-057>066-NYZ062>081-060000-
EAST


CITY           SKY/WX    TMP DP  RH WIND       PRES   REMARKS
ALBANY         CLOUDY    72  36  26 NW12      30.17S
GLENS FALLS    CLOUDY    71  37  28 N3        30.17S
POUGHKEEPSIE   PTCLDY    81  41  24 W10       30.11R
NEWBURGH       PTCLDY    77  43  29 NW10      30.14S
MONTGOMERY     PTCLDY    78  43  28 W6        30.13S
WHITE PLAINS   MOCLDY    72  53  51 S7        30.14R
ISLIP          CLOUDY    67  51  56 S7        30.14S
NEW YORK CITY  CLOUDY    71  51  49 S9        30.14S
CENTRAL PARK   CLOUDY    74  51  44 VRB5      30.17S
$$

NYZ005>009-017-018-044>046-055-056-060000-
CENTRAL


CITY           SKY/WX    TMP DP  RH WIND       PRES   REMARKS
FULTON         CLOUDY    62  37  39 N5        30.24S
SYRACUSE       CLOUDY    65  41  41 NW9       30.22S
ROME           CLOUDY    67  43  41 W10       30.22S
ELMIRA         LGT RAIN  65  52  62 NE3       30.21S
BINGHAMTON     CLOUDY    68  45  43 N10       30.22S
MONTICELLO     MOSUNNY   72  39  30 NW6       30.21R
$$

NYZ026>034-041>043-060000-
NORTH


CITY           SKY/WX    TMP DP  RH WIND       PRES   REMARKS
WATERTOWN      CLOUDY    63  40  42 W3        30.23S
FORT DRUM      NOT AVBL
MASSENA        CLOUDY    65  34  31 SW8       30.22F
SARANAC LAKE   CLOUDY    61  31  32 VRB7      30.22S
PLATTSBURGH    CLOUDY    66  31  27 NW10      30.20S
$$

NYZ001>004-010>016-019>021-060000-
WEST


CITY           SKY/WX    TMP DP  RH WIND       PRES   REMARKS
NIAGARA FALLS  LGT RAIN  58  48  69 NW6       30.25R
BUFFALO        LGT RAIN  63  51  65 N5        30.25R
DUNKIRK        LGT RAIN  56  52  86 CALM      30.26S
JAMESTOWN      CLOUDY    52  46  82 NE6       30.26F
WELLSVILLE     LGT RAIN  61  50  67 N3        30.27R
ROCHESTER      CLOUDY    61  43  51 N6        30.26R
PENN YAN       CLOUDY    64  50  60 VRB5      30.24S
$$

             KEY
       WCI = WIND CHILL INDEX
       VSB = VISIBILITY
       HX  = HEAT INDEX
$$



USA.gov is the U.S. government's official web portal to all federal, state and local government web resources and services.